Location: Aalsum
(53.3404°N, 6.0062°E)
Time: 09:15:52
(UTC+00:00)

Cosmos 1943 Rocket - Pass Details

Date: 28 January 2023
Orbit: 811 x 844 km, 71.0° (Epoch: 19 March)

Event Time Altitude Azimuth Distance (km) Brightness Sun altitude
Rises 17:16:13 0° 299° (WNW) 3,402 6.1 -9.7°
Reaches altitude 10° 17:20:10 10° 326° (NNW) 2,473 4.9 -10.3°
Maximum altitude 17:22:48 13° 354° (N) 2,251 4.3 -10.7°
Drops below altitude 10° 17:25:27 10° 22° (NNE) 2,478 4.3 -11.0°
Enters shadow 17:26:57 - 35° (NE) 2,772 4.4 -11.3°
